Location: Maiden
(35.5760°N, 81.2120°W)
Time: 06:32:03
(UTC-04:00)

Cosmos 1674 - Pass Details

Date: 14 June 2018
Orbit: 495 x 522 km, 82.5° (Epoch: 17 August)

Event Time Altitude Azimuth Distance (km) Brightness Sun altitude
Exits shadow 23:52:43 37° 319° (NW) 813 4.1 -27.2°
Drops below altitude 10° 23:55:27 10° 353° (N) 1,738 6.3 -27.4°
Sets 23:57:40 0° 0° (N) 2,633 7.3 -27.6°
